Location: Rumah Dana
(3.1167°N, 113.0167°E)
Time: 05:00:25
(UTC+00:00)

BREEZE-M DEB (TANK) - Pass Details

Date: 20 January 2026
Orbit: 351 x 15943 km, 49.4° (Epoch: 10 February)

Event Time Altitude Azimuth Distance (km) Brightness Sun altitude
Rises 10:57:03 0° 322° (NW) 3,558 6.7 -5.3°
Reaches altitude 10° 11:00:19 10° 323° (NW) 1,877 5.3 -6.1°
Maximum altitude 11:03:42 81° 50° (NE) 385 1.5 -6.9°
Drops below altitude 10° 11:06:03 10° 139° (SE) 1,310 4.0 -7.4°
Sets 11:07:54 0° 140° (SE) 2,288 5.3 -7.9°
